CAPE
4 4 2 2 2 2 2 3 2 1 1 1 1 1 0 1 2 0 0 0 0 0 0 0 0 0 0 0 0 0 0 0 0 0 0 0 0 263 1850 3193 2906 1526 1432 686 520 558 678 687 843 493 812 1130 822 982 342 1390 1389 1209 186 51 52 27 345 461 377 627 750 992 1163 1189 1190 1312 1256 1010 1097 1496 1321 1562 1388 1280 1480 1449 1955 2114 2076 2365 2250 1523
2 3 2 2 2 2 2 3 2 4 2 1 1 1 0 1 1 0 0 0 0 0 0 0 0 0 0 0 0 0 0 0 0 0 0 274 608 1106 3031 2989 1812 1454 1882 518 306 308 278 463 560 374 544 1004 23 808 1091 1116 1097 674 57 122 198 257 323 522 654 1019 804 990 1160 1131 1126 1164 1088 1305 843 1190 1013 1329 1416 1392 1619 1722 1909 1915 2043 2030 2144 2132
3 2 3 2 2 3 2 3 2 2 2 2 1 1 0 1 0 0 1 0 0 0 0 0 0 0 0 0 0 0 0 0 0 0 56 1341 1518 2797 2886 1984 1344 1396 611 136 97 59 10 130 312 383 283 606 311 1110 596 1116 1424 231 489 188 309 346 361 510 796 657 1007 1153 1133 1062 997 1047 1001 959 777 967 1103 1292 1617 1620 1905 1983 1978 1969 2044 2232 2244 2124
2 2 3 2 2 2 3 2 2 2 2 1 1 0 0 0 0 1 0 1 0 0 0 0 0 0 0 0 0 0 0 0 0 0 334 1448 2668 2759 2458 1430 1420 1651 219 2 24 32 0 28 214 340 72 337 410 468 886 644 1552 284 214 303 505 504 440 537 1021 1309 962 889 967 916 845 888 911 938 683 768 961 1203 1607 1814 2367 2246 2024 2094 2099 2200 2329 2296
2 2 2 2 2 2 2 2 2 2 2 2 1 1 1 0 1 0 0 0 0 0 0 0 0 0 0 0 0 0 0 0 0 4 321 1934 2818 2664 1854 1715 1337 542 2 54 2 0 18 65 126 213 215 102 205 547 400 476 704 202 159 322 412 298 518 694 749 1092 1085 1183 1159 704 690 828 782 987 1056 1037 1226 1371 1609 2349 2538 2520 1905 1831 2198 2322 2565 2730
2 2 2 2 2 2 2 2 2 2 2 3 1 1 1 1 0 0 1 0 0 0 0 0 0 0 0 0 0 0 0 0 0 260 2717 2471 3046 2316 1963 1528 1649 107 0 0 0 2 5 95 123 204 151 29 31 238 198 741 569 143 248 332 569 429 602 734 821 1228 1254 960 440 484 647 646 867 980 1063 1326 1550 1436 1967 2216 2358 2475 2618 2695 2647 2597 2716 2634
3 2 3 2 2 2 2 2 2 2 2 2 1 0 0 1 0 0 0 0 0 0 0 0 0 0 0 0 0 0 0 0 0 1318 2644 3029 2996 2477 2119 1664 511 0 0 0 0 3 12 105 120 24 33 24 0 147 363 602 482 249 432 552 735 756 792 759 772 1418 893 568 526 680 558 558 578 906 1192 1414 1528 1659 1907 2320 2101 2297 2627 2792 2879 2896 2823 2695
3 3 2 2 2 2 1 2 2 2 1 1 2 2 0 0 0 0 0 0 0 0 0 0 0 0 0 0 0 0 0 0 0 2059 2904 3109 2760 2254 1754 419 0 0 0 0 0 0 5 29 29 2 69 0 0 21 112 651 612 222 482 690 832 866 893 842 802 708 876 1245 1261 674 632 641 764 933 1094 1449 1622 1592 1740 1888 2002 2128 2232 2403 2691 2772 2400 2284
2 2 2 2 2 2 2 2 3 2 2 2 2 2 1 0 0 0 0 0 0 0 0 0 0 0 0 0 0 0 0 0 218 1154 2502 2280 2092 1699 479 54 0 0 0 0 0 0 0 63 6 2 0 0 0 37 64 504 399 362 462 638 860 976 987 833 565 555 843 1139 1097 868 808 700 636 690 1099 1366 1436 1541 1563 1886 1669 1768 1924 2171 2532 2646 2559 2621
3 2 2 2 2 1 2 2 3 3 2 2 4 3 1 0 0 0 0 0 0 0 0 0 0 0 0 0 0 0 0 0 432 1657 1273 1594 1697 978 101 0 0 0 0 0 0 0 0 2 0 0 0 0 0 11 24 190 201 491 575 734 974 1005 943 766 568 682 803 1149 1638 1219 1104 860 576 979 732 1343 1571 1558 1566 1598 1644 1772 1845 1978 2240 2292 2346 2343
2 2 2 2 2 2 2 3 1 3 1 2 2 3 2 1 0 0 0 0 0 0 0 0 0 0 0 0 0 0 0 0 86 226 1318 1637 1388 577 40 35 0 0 0 0 0 0 0 0 0 0 0 0 0 30 58 278 448 792 904 868 956 1004 933 788 624 617 746 954 1464 1086 891 775 806 875 911 1120 1517 1615 1519 1609 1626 1627 1851 2077 2434 2328 2320 2304
3 3 2 2 1 2 3 2 2 2 2 2 2 1 1 0 0 0 0 0 0 0 0 0 0 0 0 0 0 0 0 0 0 71 223 938 365 141 17 113 0 0 0 0 0 0 0 0 0 0 0 0 0 11 235 305 614 798 686 884 993 1000 952 841 760 939 1368 677 1261 1236 982 1019 1044 960 929 1001 1272 1456 1643 1790 2034 1924 1861 2052 2216 2124 2369 2323
2 3 3 2 2 3 3 3 2 1 2 2 1 1 0 1 0 0 0 0 0 0 0 0 0 0 0 0 0 0 0 0 0 0 0 92 0 0 0 4 0 0 0 0 0 0 0 0 0 0 0 0 0 208 401 526 618 637 502 927 975 1110 1247 1113 949 878 1054 767 1582 946 896 742 1009 964 1048 1149 1123 1266 1328 1593 1741 1959 1967 1782 1995 1951 1907 2117
2 3 4 6 3 2 3 3 2 2 1 2 1 0 0 0 0 0 0 0 0 0 0 0 0 0 0 0 0 0 0 0 0 0 0 0 0 0 0 0 0 0 0 0 0 0 0 0 0 0 0 0 84 10 453 594 462 507 521 543 871 889 1249 1131 985 834 1027 1399 810 1116 1047 823 1098 1209 1121 1202 1172 1116 1151 1199 1261 1366 1707 1808 1920 1723 1967 2056
2 2 3 4 4 2 4 4 2 2 1 2 1 0 0 0 0 0 0 0 0 0 0 0 0 0 0 0 0 0 0 0 0 0 0 0 0 0 0 0 0 0 0 0 0 0 0 0 0 0 2 1 34 364 336 543 448 368 450 448 184 174 1528 1223 1055 769 1104 1202 652 891 943 861 1067 1062 1246 1455 1547 1308 1075 996 1037 1273 1446 1486 1498 1548 1657 2096
2 3 3 5 3 2 2 2 3 3 3 2 0 0 0 0 0 0 0 0 0 0 0 0 0 0 0 0 0 0 0 0 0 0 0 0 0 0 0 0 0 0 0 0 0 0 0 0 0 0 17 67 212 263 315 543 566 452 20 6 91 43 930 1473 1135 970 1273 1380 854 790 970 839 1138 1175 1265 1409 1299 1194 1099 1121 1029 1078 1180 1178 1307 1180 1267 1737
2 2 3 4 4 3 2 3 3 4 2 1 0 0 0 0 0 0 0 0 0 0 0 0 0 0 0 0 0 0 0 0 0 0 0 0 0 0 0 0 0 0 0 0 0 0 0 0 0 0 5 32 12 1 0 0 0 253 306 0 89 58 374 586 1214 1124 1309 1268 1039 974 894 1135 1256 1259 1232 1135 1216 1238 1089 1048 1067 1243 1225 1310 1254 1210 1554 1748
2 2 3 3 3 2 2 3 3 3 2 0 0 0 0 0 0 0 0 0 0 0 0 0 0 0 0 0 0 0 0 0 0 0 0 0 0 0 0 0 0 0 0 0 0 0 0 0 0 0 0 0 0 0 0 0 0 0 0 2 176 99 159 413 1036 1366 1377 998 1178 787 863 1171 1147 1286 1263 1282 1146 1237 1092 1022 1034 1128 1052 1242 1313 1828 1833 1913
2 2 3 2 2 3 3 2 3 2 1 0 0 0 0 0 0 0 0 0 0 0 0 0 0 0 0 0 0 0 0 0 0 0 0 0 0 0 0 0 0 0 0 0 0 0 0 0 0 0 0 0 0 0 0 0 0 0 0 0 0 6 263 122 592 1216 1194 1109 1004 864 818 1033 1195 1385 1457 1379 1213 1266 1126 1160 1073 1102 1165 1391 1786 1835 1856 2207
1 4 3 2 2 3 2 3 2 2 1 0 0 0 0 0 0 0 0 0 0 0 0 0 0 0 0 0 0 0 0 0 0 0 0 0 0 0 0 0 0 0 0 0 0 0 0 0 0 0 0 0 0 0 0 0 0 0 0 0 0 0 27 240 854 1070 973 1248 985 964 966 1031 1175 1485 1646 1592 1331 1309 1180 1223 1265 1207 1166 1526 1751 1866 2200 2379
3 2 2 3 1 2 2 2 3 1 1 0 0 0 0 0 0 0 0 0 0 0 0 0 0 0 0 0 0 0 0 0 0 0 0 0 0 0 0 0 0 0 0 0 0 0 0 0 0 0 0 0 0 0 0 0 0 0 0 0 0 0 58 399 705 889 1213 1135 1200 1155 1040 1118 1206 1508 1740 1792 1678 1432 1237 1204 1240 1300 1193 1538 1740 1697 2418 2588
3 1 2 1 2 1 2 3 0 0 0 0 0 0 0 0 0 0 0 0 0 0 0 0 0 0 0 0 0 0 0 0 0 0 0 0 0 0 0 0 0 0 0 0 0 0 0 0 0 0 0 0 0 0 0 0 0 0 0 0 0 0 802 499 909 924 1160 972 1366 1394 1092 1228 1405 1537 1821 1830 1670 1587 1316 1259 1342 1355 1445 1602 1842 1867 2478 2545
1 4 1 2 2 3 1 1 0 0 0 0 0 0 0 0 0 0 0 0 0 0 0 0 0 0 0 0 0 0 0 0 0 0 0 0 0 0 0 0 0 0 0 0 0 0 0 0 0 0 0 0 0 0 0 0 0 0 0 0 0 0 7 858 810 994 1476 812 1674 1488 937 1566 1695 1654 1713 1656 1558 2057 2487 2115 1365 1326 1574 1657 1746 1874 2232 2672
1 1 2 1 2 1 0 0 0 0 0 0 0 0 0 0 0 0 0 0 0 0 0 0 0 0 0 0 0 0 0 0 0 0 0 0 0 0 0 0 0 0 0 0 0 0 0 0 0 0 0 0 0 0 0 0 0 0 0 0 0 0 0 136 1203 1134 1157 1180 977 1439 826 1448 1851 1613 1566 1786 1680 1992 2029 1864 1836 1588 1605 1727 1994 1598 1991 2320
2 2 2 3 0 1 0 0 0 0 0 0 0 0 0 0 0 0 0 0 0 0 0 0 0 0 0 0 0 0 0 0 0 0 0 0 0 0 0 0 0 0 0 0 0 0 0 0 0 0 0 0 0 0 0 0 0 0 0 0 0 0 56 639 982 974 998 1146 1048 999 791 971 1214 1428 1417 1676 1633 1571 2001 1851 1816 1842 1751 1902 1967 2040 2446 2559
2 2 2 2 2 0 0 0 0 0 0 0 0 0 0 0 0 0 0 0 0 0 0 0 0 0 0 0 0 0 0 0 0 0 0 0 0 0 0 0 0 0 0 0 0 0 0 0 0 0 0 0 0 0 0 0 0 2 0 0 0 0 110 677 695 642 759 463 823 932 522 224 1203 1666 1407 1825 1489 1480 2184 1723 2086 2178 2006 1731 1799 2426 2640 2484
3 2 2 2 2 0 0 0 0 0 0 0 0 0 0 0 0 0 0 0 0 0 0 0 0 0 0 0 0 0 0 0 0 0 0 0 0 0 0 0 0 0 0 0 0 0 0 0 0 0 0 0 0 0 0 0 0 0 0 1 5 30 245 454 598 422 858 988 1124 1008 658 484 157 1490 1487 1893 1511 1772 2067 1998 2728 2657 1992 1642 1923 2598 2570 2606
3 2 2 2 1 0 0 0 0 0 0 0 0 0 0 0 0 0 0 0 0 0 0 0 0 0 0 0 0 0 0 0 0 0 0 0 0 0 0 0 0 0 0 0 0 0 0 0 0 0 0 0 0 0 0 0 0 0 27 175 58 179 305 357 501 448 615 698 1051 809 831 713 269 2286 1956 1848 1721 1752 1848 2165 2777 2600 1971 2022 2375 2528 2519 2429
2 1 1 2 0 0 0 0 0 0 0 0 0 0 0 0 0 0 0 0 0 0 0 0 0 0 0 0 0 0 0 0 0 0 0 0 0 0 0 0 0 0 0 0 0 0 0 0 0 0 0 0 0 0 0 0 0 0 89 93 148 248 385 378 421 493 685 553 658 994 847 341 360 2881 2379 1913 1611 1892 1991 2161 2616 2430 2304 2158 1906 2600 2481 2310
1 2 0 2 0 0 0 0 0 0 0 0 0 0 0 0 0 0 0 0 0 0 0 0 0 0 0 0 0 0 0 0 0 0 0 0 0 0 0 0 0 0 0 0 0 0 0 0 0 0 0 0 0 0 0 0 0 0 122 171 193 258 332 318 450 715 674 676 441 650 869 390 312 896 1524 2141 1713 1657 1784 2266 2479 2451 2493 2256 2446 2323 2405 2368
6 4 4 3 0 0 0 0 0 0 0 0 0 0 0 0 0 0 0 0 0 0 0 0 0 0 0 0 0 0 0 0 0 0 0 0 0 0 0 0 0 0 0 0 0 0 0 0 0 0 0 0 0 0 0 0 0 4 16 9 55 361 406 415 717 671 496 214 993 714 802 696 313 543 1026 1878 1913 1767 2016 2397 2777 2589 2347 2273 2248 2089 2155 2342
2 5 4 2 0 0 0 0 0 0 0 0 0 0 0 0 0 0 0 0 0 0 0 0 0 0 0 0 0 0 0 0 0 0 0 0 0 0 0 0 0 0 0 0 0 0 0 0 0 0 0 0 0 0 0 0 0 0 0 2 1 38 98 88 513 335 271 188 1225 691 634 807 571 296 1601 1533 1825 1758 1927 2295 2687 2521 2459 2380 2403 2421 2296 2339
1 2 6 0 0 0 0 0 0 0 0 0 0 0 0 0 0 0 0 0 0 0 0 0 0 0 0 0 0 0 0 0 0 0 0 0 0 0 0 0 0 0 0 0 0 0 0 0 0 0 0 0 0 0 0 0 0 0 0 0 5 0 0 0 1 1 0 844 832 688 743 443 259 1331 1457 1896 2219 2339 2232 2301 2489 2605 2505 2062 2363 2403 2218 2202
0 2 0 0 0 0 0 0 0 0 0 0 0 0 0 0 0 0 0 0 0 0 0 0 0 0 0 0 0 0 0 0 0 0 0 0 0 0 0 0 0 0 0 0 0 0 0 0 0 0 0 0 0 0 0 0 0 0 0 0 0 0 0 0 0 0 0 497 966 903 268 325 296 1982 1562 2301 2162 2116 2061 2065 2270 2453 2360 2186 2539 2345 2203 2216
0 0 0 0 0 0 0 0 0 0 0 0 0 0 0 0 0 0 0 0 0 0 0 0 0 0 0 0 0 0 0 0 0 0 0 0 0 0 0 0 0 0 0 0 0 0 0 0 0 0 0 0 0 0 0 0 0 0 0 0 0 0 0 0 4 0 0 111 634 934 422 743 1761 2155 2080 1924 2010 2128 2062 2278 2302 2180 2384 2414 2378 2208 2158 1990
0 0 0 0 0 0 0 0 0 0 0 0 0 0 0 0 0 0 0 0 0 0 0 0 0 0 0 0 0 0 0 0 0 0 0 0 0 0 0 0 0 0 0 0 0 0 0 0 0 0 0 0 0 0 0 0 0 0 0 0 0 0 0 1 29 218 50 0 0 325 699 640 1559 1266 2037 2075 2092 2138 2145 2137 2364 2365 2371 2284 2154 2249 2261 2057
0 0 0 0 0 0 0 0 0 0 0 0 0 0 0 0 0 0 0 0 0 0 0 0 0 0 0 0 0 0 0 0 0 0 0 0 0 0 0 0 0 0 0 0 0 0 0 0 0 0 0 0 0 0 0 0 0 0 0 0 14 0 0 2 0 745 182 0 250 216 216 324 851 252 2270 2286 2344 2118 2225 2184 2126 2105 2199 2005 2250 2276 2287 2324
0 0 0 0 0 0 0 0 0 0 0 0 0 0 0 0 0 0 0 0 0 0 0 0 0 0 0 0 0 0 0 0 0 0 0 0 0 0 0 0 0 0 0 0 0 0 0 0 0 0 0 0 0 0 0 0 0 0 0 0 0 0 0 3 0 0 0 0 0 98 328 192 354 1139 1611 2281 2234 2363 2311 2248 2026 1905 1928 2172 2219 2306 2147 2338
0 0 27 0 0 0 0 0 0 0 0 0 0 0 0 0 0 0 0 0 0 0 0 0 0 0 0 0 0 0 0 0 0 0 0 0 0 0 0 0 0 0 0 0 0 0 0 0 0 0 0 0 0 0 0 0 0 0 0 0 0 0 0 13 40 0 0 0 0 52 148 13 676 2160 1878 2046 2042 2738 2439 2316 2177 2006 2126 2302 2310 2339 2241 2019
0 0 0 0 0 0 0 0 0 0 0 0 0 0 0 0 0 0 0 0 0 0 0 0 0 0 0 0 0 0 0 0 0 0 0 0 0 0 0 0 0 0 0 0 0 0 0 0 0 0 0 0 0 0 0 0 0 0 0 0 0 0 18 22 210 13 17 0 0 53 31 455 1897 2274 2505 2566 2468 2533 2406 2488 2320 1970 2194 2314 2340 2384 2306 2328
0 0 0 0 0 0 0 0 0 0 0 0 0 0 0 0 0 0 0 0 0 0 0 0 0 0 0 0 0 0 0 0 0 0 0 0 0 0 0 0 0 0 0 0 0 0 0 0 0 0 0 0 0 0 0 0 0 0 0 0 0 0 0 0 51 208 2 0 40 150 43 692 2103 2247 2782 2653 2429 2333 2328 2476 2143 2119 2231 2367 2414 2347 1990 2345
0 0 0 0 0 0 0 0 0 0 0 0 0 0 0 0 0 0 0 0 0 0 0 0 0 0 0 0 0 0 0 0 0 0 0 0 0 0 0 0 0 0 0 0 0 0 0 0 0 0 0 0 0 0 0 0 0 0 0 0 0 0 0 0 0 407 196 63 235 168 62 2057 2164 1921 2294 2440 2416 2337 2419 2043 1962 2203 2113 2248 2320 2200 2129 2418
0 0 0 0 0 0 0 0 0 0 0 0 0 0 0 0 0 0 0 0 0 0 0 0 0 0 0 0 0 0 0 0 0 0 0 0 0 0 0 0 0 0 0 0 0 0 0 0 0 0 0 0 0 0 0 0 0 0 0 0 0 0 0 0 0 28 23 387 212 263 417 1239 1759 1774 1976 2156 2325 2215 2227 2040 1915 1915 1943 2009 2103 2063 1827 2240
0 0 0 0 0 0 0 0 0 0 0 0 0 0 0 0 0 0 0 0 0 0 0 0 0 0 0 0 0 0 0 0 0 0 0 0 0 0 0 0 0 0 0 0 0 0 0 0 0 0 0 7 80 159 33 0 0 0 0 0 0 46 77 76 151 246 2 196 160 137 299 1680 2193 1729 1826 1943 1946 1798 1614 1696 1754 1821 1856 1846 2026 1999 1848 2059
0 0 0 0 0 0 0 0 0 0 0 0 0 0 0 0 0 0 0 0 0 0 0 0 0 0 0 0 0 0 0 0 0 0 0 0 0 0 0 0 0 0 0 0 6 0 0 9 0 37 26 61 97 77 120 14 5 158 400 195 49 0 32 36 0 232 43 1894 623 324 241 1913 2229 1947 1940 1935 1813 1802 1673 1540 1697 1805 1799 1912 1941 1898 1783 1789
0 0 0 0 0 0 0 0 0 0 0 0 0 0 0 0 0 0 0 0 0 0 0 0 0 0 0 0 0 0 0 0 0 0 0 0 0 0 0 0 0 0 0 694 86 0 0 154 27 15 336 198 182 464 117 719 185 57 224 109 58 42 177 134 142 196 188 1237 293 732 585 2058 2094 2278 1845 1921 1862 1723 1676 1659 1504 1802 1858 1959 1986 1793 1664 1602
0 0 0 0 0 0 0 0 0 0 0 0 0 0 0 0 52 105 2 12 0 0 0 0 0 0 44 47 149 5 0 0 0 0 0 0 0 0 0 0 0 0 1328 23 142 0 23 0 27 358 124 295 102 12 114 378 410 262 180 205 144 197 254 148 272 212 388 179 407 2001 1238 560 1724 2161 2277 2044 1975 1633 1622 1717 1709 1780 1856 1836 1833 1601 1556 1561
18 40 87 196 0 0 0 0 0 0 0 0 36 0 106 139 198 442 171 27 95 1 5 110 10 15 46 147 184 170 8 12 14 10 0 0 0 0 0 0 0 784 230 0 0 0 0 3 194 21 220 231 197 292 476 486 488 299 253 242 330 386 274 392 728 1125 1062 454 1179 1936 1809 1686 1770 2269 2128 2176 2063 1821 1406 1627 1679 1640 1720 1798 1749 1460 1508 1497
362 188 435 0 151 28 169 123 10 19 4 0 88 138 264 310 507 643 594 690 403 445 128 350 219 183 231 270 287 218 121 36 88 78 111 38 2 0 27 0 0 23 0 0 0 215 76 179 42 94 404 366 300 392 474 628 573 662 698 677 511 518 628 674 770 864 907 1068 1198 1934 1971 2153 2225 2182 2261 2025 1765 1484 1574 1679 1706 1668 1639 1659 1573 1320 1330 1466
65 112 264 6 204 197 224 229 184 54 12 480 93 240 394 509 581 796 837 696 529 382 182 119 266 392 443 307 398 380 189 102 116 146 224 59 24 3 56 74 29 0 0 0 1 200 370 740 359 217 511 533 396 485 572 598 689 808 710 657 651 697 797 759 785 831 953 1069 897 1432 1770 1854 2119 2228 2037 1752 1619 1420 1568 1549 1676 1619 1583 1536 1413 1243 1296 1617
495 466 712 489 149 210 115 177 245 165 48 200 67 164 253 402 754 904 801 664 723 880 508 360 506 557 635 446 458 343 197 127 133 155 118 74 135 25 67 188 76 107 0 0 0 28 17 872 565 564 521 568 605 545 639 620 569 739 916 922 666 564 768 944 1140 998 937 908 993 636 920 2397 1856 2055 1792 1603 1494 1575 1568 1612 1513 1468 1399 1419 1270 1128 1426 1559
342 195 407 451 87 834 184 143 92 18 0 0 15 134 303 511 382 710 707 559 623 722 768 712 681 644 587 740 635 321 100 78 100 48 33 45 2 0 0 30 98 56 0 0 7 17 114 803 618 180 126 764 682 607 492 514 404 407 933 1275 1019 840 817 701 909 977 1175 898 577 663 1783 2238 2129 2029 1912 1676 1628 1548 1507 1547 1379 1065 1407 1382 1196 1150 1587 1622
Wind_Speed
nan nan nan nan nan nan nan nan nan nan nan nan nan nan nan nan nan nan nan nan nan nan nan nan nan nan nan nan nan nan nan nan nan nan nan nan nan 11 9 5 5 6 14 14 11 15 16 17 18 19 22 24 18 24 18 26 27 29 25 nan nan nan 20 23 22 22 23 23 22 21 21 21 21 22 21 27 19 19 16 11 9 4 1 2 6 6 5 5
nan nan nan nan nan nan nan nan nan nan nan nan nan nan nan nan nan nan nan nan nan nan nan nan nan nan nan nan nan nan nan nan nan nan nan 23 13 8 5 3 4 11 18 12 15 16 15 16 18 21 20 19 nan 18 23 19 25 24 nan 23 22 24 22 23 23 24 25 22 24 23 20 19 18 22 22 22 18 20 17 15 14 10 7 6 6 6 6 5
nan nan nan nan nan nan nan nan nan nan nan nan nan nan nan nan nan nan nan nan nan nan nan nan nan nan nan nan nan nan nan nan nan nan nan 17 11 5 2 1 6 13 17 13 nan nan nan 15 17 21 18 18 17 16 21 16 26 17 25 21 22 24 22 20 22 21 23 26 25 25 21 18 18 18 22 18 17 16 15 17 16 14 13 10 9 8 8 6
nan nan nan nan nan nan nan nan nan nan nan nan nan nan nan nan nan nan nan nan nan nan nan nan nan nan nan nan nan nan nan nan nan nan 16 14 10 4 1 2 5 14 18 nan nan nan nan nan 17 21 nan 18 14 19 20 16 24 19 21 21 24 26 25 21 22 22 22 23 25 25 25 20 17 17 19 22 18 15 15 16 16 15 15 15 14 14 13 10
nan nan nan nan nan nan nan nan nan nan nan nan nan nan nan nan nan nan nan nan nan nan nan nan nan nan nan nan nan nan nan nan nan nan 16 10 8 7 3 2 7 10 nan nan nan nan nan nan 17 18 20 13 14 17 14 17 19 17 15 20 23 24 22 22 22 22 20 22 26 26 25 24 24 16 14 15 14 14 14 15 15 14 14 16 17 16 16 16
nan nan nan nan nan nan nan nan nan nan nan nan nan nan nan nan nan nan nan nan nan nan nan nan nan nan nan nan nan nan nan nan nan 18 13 10 8 8 5 4 10 15 nan nan nan nan nan nan 19 17 15 nan nan 13 12 16 21 15 17 18 21 20 21 25 23 22 24 23 21 23 25 27 24 20 16 13 12 14 14 15 15 15 14 15 15 17 18 17
nan nan nan nan nan nan nan nan nan nan nan nan nan nan nan nan nan nan nan nan nan nan nan nan nan nan nan nan nan nan nan nan nan 19 12 9 9 7 8 7 16 nan nan nan nan nan nan 17 20 nan nan nan nan 11 13 16 20 18 16 18 17 20 20 22 22 25 21 18 17 23 29 26 28 23 21 17 17 15 15 15 14 14 15 16 16 16 16 17
nan nan nan nan nan nan nan nan nan nan nan nan nan nan nan nan nan nan nan nan nan nan nan nan nan nan nan nan nan nan nan nan nan 18 15 12 9 9 7 9 nan nan nan nan nan nan nan nan nan nan nan nan nan nan 13 16 19 16 16 17 17 18 20 21 21 18 18 18 21 22 22 23 26 27 26 18 19 21 21 19 17 16 15 14 13 13 14 15
nan nan nan nan nan nan nan nan nan nan nan nan nan nan nan nan nan nan nan nan nan nan nan nan nan nan nan nan nan nan nan nan 23 17 13 10 9 7 6 nan nan nan nan nan nan nan nan nan nan nan nan nan nan nan nan 17 15 14 15 19 19 17 19 21 21 20 19 18 17 20 21 24 28 30 23 23 21 24 24 23 21 19 17 14 11 11 11 11
nan nan nan nan nan nan nan nan nan nan nan nan nan nan nan nan nan nan nan nan nan nan nan nan nan nan nan nan nan nan nan nan 21 17 13 11 11 9 9 nan nan nan nan nan nan nan nan nan nan nan nan nan nan nan nan 15 7 13 15 17 18 18 18 20 19 20 19 15 19 22 25 26 29 38 30 28 25 24 27 25 23 20 18 15 13 13 13 12
nan nan nan nan nan nan nan nan nan nan nan nan nan nan nan nan nan nan nan nan nan nan nan nan nan nan nan nan nan nan nan nan nan 20 15 12 11 10 nan nan nan nan nan nan nan nan nan nan nan nan nan nan nan nan nan 6 10 12 13 15 17 19 17 18 18 20 21 17 18 20 22 25 27 27 27 29 29 29 28 28 25 23 18 17 16 14 14 13
nan nan nan nan nan nan nan nan nan nan nan nan nan nan nan nan nan nan nan nan nan nan nan nan nan nan nan nan nan nan nan nan nan nan 17 12 12 11 nan 13 nan nan nan nan nan nan nan nan nan nan nan nan nan nan 5 10 12 14 15 14 17 20 18 20 18 19 21 18 20 19 25 25 28 26 28 30 31 31 29 28 28 26 23 21 19 17 15 13
nan nan nan nan nan nan nan nan nan nan nan nan nan nan nan nan nan nan nan nan nan nan nan nan nan nan nan nan nan nan nan nan nan nan nan nan nan nan nan nan nan nan nan nan nan nan nan nan nan nan nan nan nan 10 2 10 10 15 14 10 18 20 20 21 17 18 22 19 22 17 23 21 26 28 29 30 32 32 32 31 30 28 26 24 21 19 17 16
nan nan nan nan nan nan nan nan nan nan nan nan nan nan nan nan nan nan nan nan nan nan nan nan nan nan nan nan nan nan nan nan nan nan nan nan nan nan nan nan nan nan nan nan nan nan nan nan nan nan nan nan nan nan 8 8 11 12 10 14 14 20 20 25 22 20 22 19 25 20 18 23 26 29 29 29 30 32 31 30 29 29 27 26 24 22 21 20
nan nan nan nan nan nan nan nan nan nan nan nan nan nan nan nan nan nan nan nan nan nan nan nan nan nan nan nan nan nan nan nan nan nan nan nan nan nan nan nan nan nan nan nan nan nan nan nan nan nan nan nan nan 9 4 6 9 8 14 14 11 13 16 25 23 23 20 20 24 21 21 20 25 28 30 28 29 32 28 29 29 29 29 28 28 26 23 19
nan nan nan nan nan nan nan nan nan nan nan nan nan nan nan nan nan nan nan nan nan nan nan nan nan nan nan nan nan nan nan nan nan nan nan nan nan nan nan nan nan nan nan nan nan nan nan nan nan nan nan nan 6 6 4 6 9 9 nan nan nan nan 15 21 24 23 17 17 20 20 15 20 22 27 29 30 31 30 27 27 28 29 29 30 29 27 23 22
nan nan nan nan nan nan nan nan nan nan nan nan nan nan nan nan nan nan nan nan nan nan nan nan nan nan nan nan nan nan nan nan nan nan nan nan nan nan nan nan nan nan nan nan nan nan nan nan nan nan nan nan nan nan nan nan nan 9 9 nan nan nan 16 15 21 22 20 20 20 22 21 14 21 26 29 31 31 30 27 27 29 28 29 28 29 29 28 27
nan nan nan nan nan nan nan nan nan nan nan nan nan nan nan nan nan nan nan nan nan nan nan nan nan nan nan nan nan nan nan nan nan nan nan nan nan nan nan nan nan nan nan nan nan nan nan nan nan nan nan nan nan nan nan nan nan nan nan nan 10 nan 14 12 18 24 21 22 20 21 19 19 24 26 28 30 32 31 29 29 29 30 30 30 29 29 30 30
nan nan nan nan nan nan nan nan nan nan nan nan nan nan nan nan nan nan nan nan nan nan nan nan nan nan nan nan nan nan nan nan nan nan nan nan nan nan nan nan nan nan nan nan nan nan nan nan nan nan nan nan nan nan nan nan nan nan nan nan nan nan 14 14 13 23 23 21 22 22 21 24 27 27 27 28 31 32 31 29 30 32 31 32 30 31 32 32
nan nan nan nan nan nan nan nan nan nan nan nan nan nan nan nan nan nan nan nan nan nan nan nan nan nan nan nan nan nan nan nan nan nan nan nan nan nan nan nan nan nan nan nan nan nan nan nan nan nan nan nan nan nan nan nan nan nan nan nan nan nan nan 11 12 18 19 17 20 22 18 23 28 29 28 27 28 31 33 33 31 31 31 31 32 30 31 34
nan nan nan nan nan nan nan nan nan nan nan nan nan nan nan nan nan nan nan nan nan nan nan nan nan nan nan nan nan nan nan nan nan nan nan nan nan nan nan nan nan nan nan nan nan nan nan nan nan nan nan nan nan nan nan nan nan nan nan nan nan nan nan 11 12 16 17 16 17 19 21 22 27 28 28 26 27 31 33 34 33 32 32 31 32 32 34 35
nan nan nan nan nan nan nan nan nan nan nan nan nan nan nan nan nan nan nan nan nan nan nan nan nan nan nan nan nan nan nan nan nan nan nan nan nan nan nan nan nan nan nan nan nan nan nan nan nan nan nan nan nan nan nan nan nan nan nan nan nan nan 12 13 12 14 16 14 14 21 21 22 25 27 27 27 28 28 30 32 32 33 32 32 32 32 35 37
nan nan nan nan nan nan nan nan nan nan nan nan nan nan nan nan nan nan nan nan nan nan nan nan nan nan nan nan nan nan nan nan nan nan nan nan nan nan nan nan nan nan nan nan nan nan nan nan nan nan nan nan nan nan nan nan nan nan nan nan nan nan nan 15 16 18 14 11 9 19 19 19 22 23 25 26 28 25 24 26 31 32 33 32 33 34 35 37
nan nan nan nan nan nan nan nan nan nan nan nan nan nan nan nan nan nan nan nan nan nan nan nan nan nan nan nan nan nan nan nan nan nan nan nan nan nan nan nan nan nan nan nan nan nan nan nan nan nan nan nan nan nan nan nan nan nan nan nan nan nan nan 9 21 19 16 12 10 16 16 19 22 24 25 27 27 26 28 29 29 30 31 31 31 33 34 36
nan nan nan nan nan nan nan nan nan nan nan nan nan nan nan nan nan nan nan nan nan nan nan nan nan nan nan nan nan nan nan nan nan nan nan nan nan nan nan nan nan nan nan nan nan nan nan nan nan nan nan nan nan nan nan nan nan nan nan nan nan nan nan 21 27 23 17 15 14 20 16 18 24 24 25 27 28 30 30 31 32 33 34 33 34 34 34 35
nan nan nan nan nan nan nan nan nan nan nan nan nan nan nan nan nan nan nan nan nan nan nan nan nan nan nan nan nan nan nan nan nan nan nan nan nan nan nan nan nan nan nan nan nan nan nan nan nan nan nan nan nan nan nan nan nan nan nan nan nan nan 18 22 22 17 15 10 20 21 12 12 16 22 25 28 30 31 30 31 31 33 34 34 33 34 35 37
nan nan nan nan nan nan nan nan nan nan nan nan nan nan nan nan nan nan nan nan nan nan nan nan nan nan nan nan nan nan nan nan nan nan nan nan nan nan nan nan nan nan nan nan nan nan nan nan nan nan nan nan nan nan nan nan nan nan nan nan nan nan 18 19 18 11 15 17 19 18 15 8 13 21 27 30 31 31 31 31 32 33 35 35 35 34 35 37
nan nan nan nan nan nan nan nan nan nan nan nan nan nan nan nan nan nan nan nan nan nan nan nan nan nan nan nan nan nan nan nan nan nan nan nan nan nan nan nan nan nan nan nan nan nan nan nan nan nan nan nan nan nan nan nan nan nan nan 15 nan 19 17 17 14 12 14 13 16 18 16 13 13 18 24 30 30 30 30 31 33 35 36 37 37 36 38 39
nan nan nan nan nan nan nan nan nan nan nan nan nan nan nan nan nan nan nan nan nan nan nan nan nan nan nan nan nan nan nan nan nan nan nan nan nan nan nan nan nan nan nan nan nan nan nan nan nan nan nan nan nan nan nan nan nan nan nan nan 22 22 18 15 13 13 15 13 12 18 19 12 10 22 23 26 25 27 28 30 33 38 39 39 40 40 40 40
nan nan nan nan nan nan nan nan nan nan nan nan nan nan nan nan nan nan nan nan nan nan nan nan nan nan nan nan nan nan nan nan nan nan nan nan nan nan nan nan nan nan nan nan nan nan nan nan nan nan nan nan nan nan nan nan nan nan 21 22 22 20 19 14 15 13 14 13 11 14 20 13 10 19 22 24 22 23 25 28 32 38 38 40 41 41 41 41
nan nan nan nan nan nan nan nan nan nan nan nan nan nan nan nan nan nan nan nan nan nan nan nan nan nan nan nan nan nan nan nan nan nan nan nan nan nan nan nan nan nan nan nan nan nan nan nan nan nan nan nan nan nan nan nan nan nan nan nan nan 20 17 15 17 15 9 11 18 14 18 19 14 17 20 22 21 21 23 30 35 38 40 42 42 42 42 41
nan nan nan nan nan nan nan nan nan nan nan nan nan nan nan nan nan nan nan nan nan nan nan nan nan nan nan nan nan nan nan nan nan nan nan nan nan nan nan nan nan nan nan nan nan nan nan nan nan nan nan nan nan nan nan nan nan nan nan nan nan nan nan nan 17 13 11 11 20 17 19 18 16 12 19 22 22 24 23 26 34 37 41 44 44 43 41 39
nan nan nan nan nan nan nan nan nan nan nan nan nan nan nan nan nan nan nan nan nan nan nan nan nan nan nan nan nan nan nan nan nan nan nan nan nan nan nan nan nan nan nan nan nan nan nan nan nan nan nan nan nan nan nan nan nan nan nan nan nan nan nan nan nan nan nan 22 19 16 18 12 7 18 17 20 20 23 26 27 30 38 42 43 44 41 39 39
nan nan nan nan nan nan nan nan nan nan nan nan nan nan nan nan nan nan nan nan nan nan nan nan nan nan nan nan nan nan nan nan nan nan nan nan nan nan nan nan nan nan nan nan nan nan nan nan nan nan nan nan nan nan nan nan nan nan nan nan nan nan nan nan nan nan nan 17 23 21 19 14 11 17 19 19 21 23 26 29 33 34 39 40 42 39 39 41
nan nan nan nan nan nan nan nan nan nan nan nan nan nan nan nan nan nan nan nan nan nan nan nan nan nan nan nan nan nan nan nan nan nan nan nan nan nan nan nan nan nan nan nan nan nan nan nan nan nan nan nan nan nan nan nan nan nan nan nan nan nan nan nan nan nan nan 17 22 21 11 12 9 20 20 20 24 24 26 31 35 38 38 41 41 42 43 43
nan nan nan nan nan nan nan nan nan nan nan nan nan nan nan nan nan nan nan nan nan nan nan nan nan nan nan nan nan nan nan nan nan nan nan nan nan nan nan nan nan nan nan nan nan nan nan nan nan nan nan nan nan nan nan nan nan nan nan nan nan nan nan nan nan 15 nan nan nan 13 10 12 19 18 20 23 25 26 28 32 36 40 43 43 43 45 45 44
nan nan nan nan nan nan nan nan nan nan nan nan nan nan nan nan nan nan nan nan nan nan nan nan nan nan nan nan nan nan nan nan nan nan nan nan nan nan nan nan nan nan nan nan nan nan nan nan nan nan nan nan nan nan nan nan nan nan nan nan nan nan nan nan nan 20 14 nan 12 10 4 12 16 15 19 25 26 29 32 33 37 40 43 43 44 46 47 45
nan nan nan nan nan nan nan nan nan nan nan nan nan nan nan nan nan nan nan nan nan nan nan nan nan nan nan nan nan nan nan nan nan nan nan nan nan nan nan nan nan nan nan nan nan nan nan nan nan nan nan nan nan nan nan nan nan nan nan nan nan nan nan nan nan nan nan nan nan nan 10 6 12 15 22 27 28 33 35 36 39 43 43 44 45 47 47 46
nan nan nan nan nan nan nan nan nan nan nan nan nan nan nan nan nan nan nan nan nan nan nan nan nan nan nan nan nan nan nan nan nan nan nan nan nan nan nan nan nan nan nan nan nan nan nan nan nan nan nan nan nan nan nan nan nan nan nan nan nan nan nan nan nan nan nan nan nan nan 16 nan 21 14 17 25 29 35 37 38 41 43 45 44 45 47 47 45
nan nan nan nan nan nan nan nan nan nan nan nan nan nan nan nan nan nan nan nan nan nan nan nan nan nan nan nan nan nan nan nan nan nan nan nan nan nan nan nan nan nan nan nan nan nan nan nan nan nan nan nan nan nan nan nan nan nan nan nan nan nan nan nan 16 nan nan nan nan nan nan 19 20 15 18 24 30 35 37 40 41 43 45 45 46 47 46 44
nan nan nan nan nan nan nan nan nan nan nan nan nan nan nan nan nan nan nan nan nan nan nan nan nan nan nan nan nan nan nan nan nan nan nan nan nan nan nan nan nan nan nan nan nan nan nan nan nan nan nan nan nan nan nan nan nan nan nan nan nan nan nan nan nan 15 nan nan nan 9 nan 25 24 18 22 28 30 35 38 41 42 44 45 45 46 46 45 43
nan nan nan nan nan nan nan nan nan nan nan nan nan nan nan nan nan nan nan nan nan nan nan nan nan nan nan nan nan nan nan nan nan nan nan nan nan nan nan nan nan nan nan nan nan nan nan nan nan nan nan nan nan nan nan nan nan nan nan nan nan nan nan nan nan 17 16 nan 10 10 nan 25 25 21 24 28 31 37 40 40 42 45 45 45 46 47 45 42
nan nan nan nan nan nan nan nan nan nan nan nan nan nan nan nan nan nan nan nan nan nan nan nan nan nan nan nan nan nan nan nan nan nan nan nan nan nan nan nan nan nan nan nan nan nan nan nan nan nan nan nan nan nan nan nan nan nan nan nan nan nan nan nan nan nan nan 14 11 15 14 27 25 24 27 30 34 36 37 41 45 45 45 46 46 46 43 41
nan nan nan nan nan nan nan nan nan nan nan nan nan nan nan nan nan nan nan nan nan nan nan nan nan nan nan nan nan nan nan nan nan nan nan nan nan nan nan nan nan nan nan nan nan nan nan nan nan nan nan nan nan 19 nan nan nan nan nan nan nan nan nan nan 18 19 nan 15 11 10 11 26 27 28 31 34 37 40 41 44 45 45 45 47 47 43 40 39
nan nan nan nan nan nan nan nan nan nan nan nan nan nan nan nan nan nan nan nan nan nan nan nan nan nan nan nan nan nan nan nan nan nan nan nan nan nan nan nan nan nan nan nan nan nan nan nan nan nan nan nan nan nan 13 nan nan 20 20 19 nan nan nan nan nan 18 nan 25 20 14 19 29 31 30 35 36 38 41 42 44 44 45 47 47 44 40 38 37
nan nan nan nan nan nan nan nan nan nan nan nan nan nan nan nan nan nan nan nan nan nan nan nan nan nan nan nan nan nan nan nan nan nan nan nan nan nan nan nan nan nan nan 30 nan nan nan 25 nan nan 23 22 23 24 21 20 19 nan 20 18 nan nan 19 19 23 14 13 25 20 25 22 30 34 35 37 40 39 43 43 45 45 46 46 44 41 37 36 37
nan nan nan nan nan nan nan nan nan nan nan nan nan nan nan nan nan 18 nan nan nan nan nan nan nan nan nan nan 10 nan nan nan nan nan nan nan nan nan nan nan nan nan 25 nan 19 nan nan nan nan 22 20 21 22 nan 21 18 16 21 20 21 22 21 20 19 17 24 27 18 19 31 26 25 33 37 38 40 41 42 44 45 46 45 43 40 38 36 37 39
nan nan nan 25 nan nan nan nan nan nan nan nan nan nan 16 16 18 19 19 nan nan nan nan 17 nan nan nan 15 15 12 nan nan nan nan nan nan nan nan nan nan nan 14 18 nan nan nan nan nan 22 nan 20 18 17 17 17 16 18 20 21 22 23 21 20 20 28 28 22 21 25 31 31 32 33 36 38 40 42 43 45 46 44 41 39 37 37 37 38 40
20 21 21 nan 18 nan 25 27 nan nan nan nan nan 17 16 16 19 23 24 25 21 19 17 21 17 15 15 15 13 15 20 nan nan nan 22 nan nan nan nan nan nan nan nan nan nan 23 nan 20 nan nan 19 20 18 16 15 16 20 22 24 24 24 25 28 31 32 29 30 30 32 34 36 35 33 37 40 43 42 43 43 41 39 38 37 36 37 39 39 40
nan 18 18 nan 21 20 20 19 19 nan nan 20 nan 17 17 17 20 23 22 22 22 21 22 21 21 22 20 17 14 16 21 25 28 27 21 nan nan nan nan nan nan nan nan nan nan 17 21 20 9 9 14 21 21 18 17 18 22 26 27 27 28 30 31 31 30 29 30 31 31 32 34 35 35 38 42 40 39 40 39 37 35 35 36 37 38 39 39 38
22 22 23 19 16 20 19 18 18 18 nan 18 nan 20 18 17 20 26 25 22 21 23 21 22 27 26 19 16 18 19 21 24 29 26 23 nan 16 nan nan 11 nan 10 nan nan nan nan nan 17 9 10 11 17 17 17 18 21 23 28 28 26 25 23 24 23 23 23 19 27 28 29 30 33 36 38 39 38 38 38 37 36 36 35 36 37 38 38 38 37
18 20 19 19 nan 21 18 19 nan nan nan nan nan 22 20 21 23 26 28 24 23 23 25 27 27 25 21 17 20 24 25 nan nan nan nan nan nan nan nan nan nan nan nan nan nan nan 8 12 12 14 11 13 16 15 20 21 22 20 24 24 23 24 23 24 25 24 26 24 25 26 31 33 38 37 38 38 38 38 37 36 35 36 36 36 35 37 37 39
Wind_Direction
nan nan nan nan nan nan nan nan nan nan nan nan nan nan nan nan nan nan nan nan nan nan nan nan nan nan nan nan nan nan nan nan nan nan nan nan nan 181 175 259 31 61 49 63 52 52 56 60 60 62 67 68 66 68 76 69 71 64 64 nan nan nan 62 66 60 55 50 42 41 43 47 41 34 39 42 48 45 49 44 45 48 48 84 61 348 347 338 330
nan nan nan nan nan nan nan nan nan nan nan nan nan nan nan nan nan nan nan nan nan nan nan nan nan nan nan nan nan nan nan nan nan nan nan 152 165 181 210 317 28 50 62 67 59 66 69 65 64 62 67 65 nan 69 72 63 69 72 nan 65 57 64 60 65 61 59 52 46 41 39 39 40 42 50 45 48 44 44 37 37 37 29 29 20 11 6 8 3
nan nan nan nan nan nan nan nan nan nan nan nan nan nan nan nan nan nan nan nan nan nan nan nan nan nan nan nan nan nan nan nan nan nan nan 160 161 193 259 7 30 59 77 90 nan nan nan 80 64 62 69 69 65 67 68 60 67 74 75 62 58 56 54 59 61 47 45 42 39 38 36 40 44 48 41 40 35 41 47 45 36 34 30 33 37 30 27 21
nan nan nan nan nan nan nan nan nan nan nan nan nan nan nan nan nan nan nan nan nan nan nan nan nan nan nan nan nan nan nan nan nan nan 171 171 165 185 246 48 52 74 114 nan nan nan nan nan 63 69 nan 68 55 60 61 53 68 71 72 69 59 54 50 54 49 49 48 47 45 40 37 35 42 47 45 43 35 42 47 55 52 33 33 38 42 42 40 36
nan nan nan nan nan nan nan nan nan nan nan nan nan nan nan nan nan nan nan nan nan nan nan nan nan nan nan nan nan nan nan nan nan nan 177 172 176 159 171 92 79 101 nan nan nan nan nan nan 65 70 77 70 54 49 52 48 69 64 75 68 57 53 52 53 53 51 49 52 47 44 41 37 37 42 48 47 41 53 62 52 42 36 34 40 40 44 48 44
nan nan nan nan nan nan nan nan nan nan nan nan nan nan nan nan nan nan nan nan nan nan nan nan nan nan nan nan nan nan nan nan nan 179 183 178 182 166 157 124 96 127 nan nan nan nan nan nan 73 76 73 nan nan 59 37 54 62 58 59 59 71 65 52 52 50 53 54 49 49 44 39 34 35 31 35 31 29 31 48 43 40 37 38 39 42 44 49 52
nan nan nan nan nan nan nan nan nan nan nan nan nan nan nan nan nan nan nan nan nan nan nan nan nan nan nan nan nan nan nan nan nan 192 204 183 191 186 163 141 135 nan nan nan nan nan nan 94 88 nan nan nan nan 55 39 37 56 66 45 53 59 62 58 54 50 56 59 49 42 44 43 40 36 31 36 27 27 26 29 38 39 38 36 38 39 46 47 53
nan nan nan nan nan nan nan nan nan nan nan nan nan nan nan nan nan nan nan nan nan nan nan nan nan nan nan nan nan nan nan nan nan 197 204 199 205 195 171 146 nan nan nan nan nan nan nan nan nan nan nan nan nan nan 32 34 53 45 36 39 46 58 58 55 52 50 49 49 47 41 39 37 34 32 32 31 29 28 25 29 32 34 36 36 39 43 46 51
nan nan nan nan nan nan nan nan nan nan nan nan nan nan nan nan nan nan nan nan nan nan nan nan nan nan nan nan nan nan nan nan 198 206 219 211 207 205 156 nan nan nan nan nan nan nan nan nan nan nan nan nan nan nan nan 42 30 56 23 29 34 44 54 57 49 45 43 46 37 33 33 32 30 26 33 38 34 32 28 29 30 30 30 31 33 39 41 43
nan nan nan nan nan nan nan nan nan nan nan nan nan nan nan nan nan nan nan nan nan nan nan nan nan nan nan nan nan nan nan nan 211 209 207 209 214 193 142 nan nan nan nan nan nan nan nan nan nan nan nan nan nan nan nan 60 32 31 20 19 25 31 41 56 54 49 49 42 46 35 35 38 40 50 36 39 39 34 33 31 32 32 31 33 32 34 33 33
nan nan nan nan nan nan nan nan nan nan nan nan nan nan nan nan nan nan nan nan nan nan nan nan nan nan nan nan nan nan nan nan nan 209 210 209 219 184 nan nan nan nan nan nan nan nan nan nan nan nan nan nan nan nan nan 34 16 14 4 7 21 31 35 42 52 49 46 42 47 36 35 37 43 44 38 35 37 37 30 31 32 36 32 36 33 36 33 34
nan nan nan nan nan nan nan nan nan nan nan nan nan nan nan nan nan nan nan nan nan nan nan nan nan nan nan nan nan nan nan nan nan nan 208 208 199 176 nan 170 nan nan nan nan nan nan nan nan nan nan nan nan nan nan 44 29 24 3 7 13 17 23 24 32 41 54 62 37 40 56 34 36 39 36 36 36 37 36 33 28 34 34 34 32 36 34 34 31
nan nan nan nan nan nan nan nan nan nan nan nan nan nan nan nan nan nan nan nan nan nan nan nan nan nan nan nan nan nan nan nan nan nan nan nan nan nan nan nan nan nan nan nan nan nan nan nan nan nan nan nan nan 123 12 43 16 17 30 12 18 26 24 23 29 40 52 41 44 42 47 39 34 33 36 36 36 37 33 29 27 32 32 33 29 29 29 22
nan nan nan nan nan nan nan nan nan nan nan nan nan nan nan nan nan nan nan nan nan nan nan nan nan nan nan nan nan nan nan nan nan nan nan nan nan nan nan nan nan nan nan nan nan nan nan nan nan nan nan nan nan nan 26 27 22 19 0 25 26 31 19 13 20 27 46 39 49 48 53 43 30 31 32 34 39 38 34 29 26 25 27 27 26 24 21 10
nan nan nan nan nan nan nan nan nan nan nan nan nan nan nan nan nan nan nan nan nan nan nan nan nan nan nan nan nan nan nan nan nan nan nan nan nan nan nan nan nan nan nan nan nan nan nan nan nan nan nan nan nan 56 56 35 30 357 8 19 27 45 1 9 13 19 38 34 47 57 49 33 28 24 25 26 34 40 32 29 25 24 23 22 21 19 13 7
nan nan nan nan nan nan nan nan nan nan nan nan nan nan nan nan nan nan nan nan nan nan nan nan nan nan nan nan nan nan nan nan nan nan nan nan nan nan nan nan nan nan nan nan nan nan nan nan nan nan nan nan 83 102 92 39 17 3 nan nan nan nan 0 10 14 17 39 30 34 48 47 25 26 23 19 18 23 28 27 25 25 23 21 19 18 16 15 11
nan nan nan nan nan nan nan nan nan nan nan nan nan nan nan nan nan nan nan nan nan nan nan nan nan nan nan nan nan nan nan nan nan nan nan nan nan nan nan nan nan nan nan nan nan nan nan nan nan nan nan nan nan nan nan nan nan 342 6 nan nan nan 9 16 354 13 13 35 27 26 42 23 17 18 16 14 14 20 16 19 20 21 21 17 15 16 11 14
nan nan nan nan nan nan nan nan nan nan nan nan nan nan nan nan nan nan nan nan nan nan nan nan nan nan nan nan nan nan nan nan nan nan nan nan nan nan nan nan nan nan nan nan nan nan nan nan nan nan nan nan nan nan nan nan nan nan nan nan 10 nan 30 7 7 359 10 23 33 18 34 8 10 12 14 13 8 13 8 13 15 18 17 15 12 12 12 10
nan nan nan nan nan nan nan nan nan nan nan nan nan nan nan nan nan nan nan nan nan nan nan nan nan nan nan nan nan nan nan nan nan nan nan nan nan nan nan nan nan nan nan nan nan nan nan nan nan nan nan nan nan nan nan nan nan nan nan nan nan nan 359 22 343 340 3 9 21 19 17 5 4 6 10 12 6 9 3 6 12 16 13 13 7 8 8 5
nan nan nan nan nan nan nan nan nan nan nan nan nan nan nan nan nan nan nan nan nan nan nan nan nan nan nan nan nan nan nan nan nan nan nan nan nan nan nan nan nan nan nan nan nan nan nan nan nan nan nan nan nan nan nan nan nan nan nan nan nan nan nan 343 337 347 359 7 19 12 7 1 0 1 4 10 8 5 3 2 9 14 13 7 5 4 2 359
nan nan nan nan nan nan nan nan nan nan nan nan nan nan nan nan nan nan nan nan nan nan nan nan nan nan nan nan nan nan nan nan nan nan nan nan nan nan nan nan nan nan nan nan nan nan nan nan nan nan nan nan nan nan nan nan nan nan nan nan nan nan nan 329 341 344 355 14 355 4 1 3 360 358 359 4 10 6 2 2 3 11 12 5 4 359 359 356
nan nan nan nan nan nan nan nan nan nan nan nan nan nan nan nan nan nan nan nan nan nan nan nan nan nan nan nan nan nan nan nan nan nan nan nan nan nan nan nan nan nan nan nan nan nan nan nan nan nan nan nan nan nan nan nan nan nan nan nan nan nan 297 315 325 345 352 12 348 355 3 360 360 359 356 1 9 6 4 2 2 4 11 5 3 358 355 354
nan nan nan nan nan nan nan nan nan nan nan nan nan nan nan nan nan nan nan nan nan nan nan nan nan nan nan nan nan nan nan nan nan nan nan nan nan nan nan nan nan nan nan nan nan nan nan nan nan nan nan nan nan nan nan nan nan nan nan nan nan nan nan 322 329 339 349 4 335 349 1 346 357 359 359 1 6 2 359 4 3 360 6 6 0 358 356 353
nan nan nan nan nan nan nan nan nan nan nan nan nan nan nan nan nan nan nan nan nan nan nan nan nan nan nan nan nan nan nan nan nan nan nan nan nan nan nan nan nan nan nan nan nan nan nan nan nan nan nan nan nan nan nan nan nan nan nan nan nan nan nan 277 315 329 337 342 348 341 355 349 0 1 0 357 0 358 2 3 5 359 358 1 357 352 355 353
nan nan nan nan nan nan nan nan nan nan nan nan nan nan nan nan nan nan nan nan nan nan nan nan nan nan nan nan nan nan nan nan nan nan nan nan nan nan nan nan nan nan nan nan nan nan nan nan nan nan nan nan nan nan nan nan nan nan nan nan nan nan nan 294 306 318 327 334 355 1 356 354 355 4 360 351 355 1 357 0 1 357 355 355 356 352 350 349
nan nan nan nan nan nan nan nan nan nan nan nan nan nan nan nan nan nan nan nan nan nan nan nan nan nan nan nan nan nan nan nan nan nan nan nan nan nan nan nan nan nan nan nan nan nan nan nan nan nan nan nan nan nan nan nan nan nan nan nan nan nan 291 302 314 324 321 336 341 5 11 315 342 1 357 349 355 355 350 357 354 351 351 354 355 352 350 348
nan nan nan nan nan nan nan nan nan nan nan nan nan nan nan nan nan nan nan nan nan nan nan nan nan nan nan nan nan nan nan nan nan nan nan nan nan nan nan nan nan nan nan nan nan nan nan nan nan nan nan nan nan nan nan nan nan nan nan nan nan nan 296 307 314 322 287 301 315 353 356 358 352 355 352 347 353 352 351 351 348 348 350 349 351 349 349 347
nan nan nan nan nan nan nan nan nan nan nan nan nan nan nan nan nan nan nan nan nan nan nan nan nan nan nan nan nan nan nan nan nan nan nan nan nan nan nan nan nan nan nan nan nan nan nan nan nan nan nan nan nan nan nan nan nan nan nan 268 nan 283 288 301 309 297 293 319 326 338 348 356 358 328 336 343 352 355 354 349 347 346 344 344 345 346 345 346
nan nan nan nan nan nan nan nan nan nan nan nan nan nan nan nan nan nan nan nan nan nan nan nan nan nan nan nan nan nan nan nan nan nan nan nan nan nan nan nan nan nan nan nan nan nan nan nan nan nan nan nan nan nan nan nan nan nan nan nan 276 281 291 295 295 294 295 310 323 333 344 356 349 325 341 346 356 354 353 349 345 343 341 343 343 344 343 343
nan nan nan nan nan nan nan nan nan nan nan nan nan nan nan nan nan nan nan nan nan nan nan nan nan nan nan nan nan nan nan nan nan nan nan nan nan nan nan nan nan nan nan nan nan nan nan nan nan nan nan nan nan nan nan nan nan nan 279 281 284 287 287 291 281 285 297 316 324 320 337 346 337 331 335 346 347 349 343 344 341 339 340 342 342 343 341 340
nan nan nan nan nan nan nan nan nan nan nan nan nan nan nan nan nan nan nan nan nan nan nan nan nan nan nan nan nan nan nan nan nan nan nan nan nan nan nan nan nan nan nan nan nan nan nan nan nan nan nan nan nan nan nan nan nan nan nan nan nan 284 288 290 287 287 298 301 292 302 323 325 343 332 340 327 324 328 333 340 339 341 340 339 339 340 339 338
nan nan nan nan nan nan nan nan nan nan nan nan nan nan nan nan nan nan nan nan nan nan nan nan nan nan nan nan nan nan nan nan nan nan nan nan nan nan nan nan nan nan nan nan nan nan nan nan nan nan nan nan nan nan nan nan nan nan nan nan nan nan nan nan 297 301 308 289 293 298 310 331 347 9 325 327 327 328 330 332 341 339 338 335 337 337 337 337
nan nan nan nan nan nan nan nan nan nan nan nan nan nan nan nan nan nan nan nan nan nan nan nan nan nan nan nan nan nan nan nan nan nan nan nan nan nan nan nan nan nan nan nan nan nan nan nan nan nan nan nan nan nan nan nan nan nan nan nan nan nan nan nan nan nan nan 295 298 300 305 330 346 321 325 325 322 324 328 331 332 336 338 336 336 338 339 338
nan nan nan nan nan nan nan nan nan nan nan nan nan nan nan nan nan nan nan nan nan nan nan nan nan nan nan nan nan nan nan nan nan nan nan nan nan nan nan nan nan nan nan nan nan nan nan nan nan nan nan nan nan nan nan nan nan nan nan nan nan nan nan nan nan nan nan 287 301 305 314 315 351 310 314 312 326 333 331 336 334 336 338 338 336 338 338 335
nan nan nan nan nan nan nan nan nan nan nan nan nan nan nan nan nan nan nan nan nan nan nan nan nan nan nan nan nan nan nan nan nan nan nan nan nan nan nan nan nan nan nan nan nan nan nan nan nan nan nan nan nan nan nan nan nan nan nan nan nan nan nan nan nan nan nan 297 314 317 320 310 302 311 311 323 327 329 331 332 337 336 335 332 336 337 339 337
nan nan nan nan nan nan nan nan nan nan nan nan nan nan nan nan nan nan nan nan nan nan nan nan nan nan nan nan nan nan nan nan nan nan nan nan nan nan nan nan nan nan nan nan nan nan nan nan nan nan nan nan nan nan nan nan nan nan nan nan nan nan nan nan nan 284 nan nan nan 314 340 319 303 319 322 327 326 323 328 329 333 336 333 333 337 338 337 334
nan nan nan nan nan nan nan nan nan nan nan nan nan nan nan nan nan nan nan nan nan nan nan nan nan nan nan nan nan nan nan nan nan nan nan nan nan nan nan nan nan nan nan nan nan nan nan nan nan nan nan nan nan nan nan nan nan nan nan nan nan nan nan nan nan 289 303 nan 295 319 25 307 308 310 324 330 328 325 325 325 327 332 332 336 337 337 333 329
nan nan nan nan nan nan nan nan nan nan nan nan nan nan nan nan nan nan nan nan nan nan nan nan nan nan nan nan nan nan nan nan nan nan nan nan nan nan nan nan nan nan nan nan nan nan nan nan nan nan nan nan nan nan nan nan nan nan nan nan nan nan nan nan nan nan nan nan nan nan 296 311 293 294 323 327 332 326 321 321 325 330 334 334 333 332 330 325
nan nan nan nan nan nan nan nan nan nan nan nan nan nan nan nan nan nan nan nan nan nan nan nan nan nan nan nan nan nan nan nan nan nan nan nan nan nan nan nan nan nan nan nan nan nan nan nan nan nan nan nan nan nan nan nan nan nan nan nan nan nan nan nan nan nan nan nan nan nan 308 nan 291 288 294 311 324 321 319 321 324 328 331 330 330 331 330 325
nan nan nan nan nan nan nan nan nan nan nan nan nan nan nan nan nan nan nan nan nan nan nan nan nan nan nan nan nan nan nan nan nan nan nan nan nan nan nan nan nan nan nan nan nan nan nan nan nan nan nan nan nan nan nan nan nan nan nan nan nan nan nan nan 264 nan nan nan nan nan nan 286 283 297 300 299 312 316 317 317 320 325 328 328 330 331 329 326
nan nan nan nan nan nan nan nan nan nan nan nan nan nan nan nan nan nan nan nan nan nan nan nan nan nan nan nan nan nan nan nan nan nan nan nan nan nan nan nan nan nan nan nan nan nan nan nan nan nan nan nan nan nan nan nan nan nan nan nan nan nan nan nan nan 277 nan nan nan 281 nan 281 286 305 301 299 304 308 309 313 319 323 325 326 328 329 328 324
nan nan nan nan nan nan nan nan nan nan nan nan nan nan nan nan nan nan nan nan nan nan nan nan nan nan nan nan nan nan nan nan nan nan nan nan nan nan nan nan nan nan nan nan nan nan nan nan nan nan nan nan nan nan nan nan nan nan nan nan nan nan nan nan nan 273 257 nan 264 287 nan 282 290 302 301 297 301 304 308 314 317 320 323 324 326 327 327 323
nan nan nan nan nan nan nan nan nan nan nan nan nan nan nan nan nan nan nan nan nan nan nan nan nan nan nan nan nan nan nan nan nan nan nan nan nan nan nan nan nan nan nan nan nan nan nan nan nan nan nan nan nan nan nan nan nan nan nan nan nan nan nan nan nan nan nan 298 309 307 307 285 299 307 303 301 298 301 308 313 317 321 322 323 326 325 325 321
nan nan nan nan nan nan nan nan nan nan nan nan nan nan nan nan nan nan nan nan nan nan nan nan nan nan nan nan nan nan nan nan nan nan nan nan nan nan nan nan nan nan nan nan nan nan nan nan nan nan nan nan nan 248 nan nan nan nan nan nan nan nan nan nan 245 264 nan 290 294 291 289 289 305 310 306 305 307 308 312 314 318 319 320 323 324 324 323 319
nan nan nan nan nan nan nan nan nan nan nan nan nan nan nan nan nan nan nan nan nan nan nan nan nan nan nan nan nan nan nan nan nan nan nan nan nan nan nan nan nan nan nan nan nan nan nan nan nan nan nan nan nan nan 245 nan nan 239 229 244 nan nan nan nan nan 271 nan 279 300 314 281 284 300 308 302 303 305 307 310 312 313 316 320 321 322 322 321 320
nan nan nan nan nan nan nan nan nan nan nan nan nan nan nan nan nan nan nan nan nan nan nan nan nan nan nan nan nan nan nan nan nan nan nan nan nan nan nan nan nan nan nan 205 nan nan nan 202 nan nan 181 198 211 223 224 215 249 nan 249 246 nan nan 250 254 250 262 277 289 308 297 285 294 300 305 305 306 310 309 311 312 314 317 318 319 319 321 322 320
nan nan nan nan nan nan nan nan nan nan nan nan nan nan nan nan nan 199 nan nan nan nan nan nan nan nan nan nan 174 nan nan nan nan nan nan nan nan nan nan nan nan nan 217 nan 190 nan nan nan nan 191 191 201 211 nan 224 220 226 244 257 255 254 258 261 272 278 279 287 308 300 283 287 286 290 301 304 306 307 308 309 312 313 315 317 318 319 320 318 318
nan nan nan 206 nan nan nan nan nan nan nan nan nan nan 203 203 209 206 213 nan nan nan nan 198 nan nan nan 174 181 176 nan nan nan nan nan nan nan nan nan nan nan 211 204 nan nan nan nan nan 215 nan 212 213 220 224 227 232 235 248 256 263 265 266 277 279 273 275 279 278 269 277 283 287 290 296 301 303 306 308 310 312 313 315 316 317 318 319 318 317
198 214 208 nan 200 nan 201 210 nan nan nan nan nan 205 201 202 205 207 196 197 192 189 184 182 197 192 179 179 175 179 189 nan nan nan 178 nan nan nan nan nan nan nan nan nan nan 191 nan 196 nan nan 224 225 230 233 242 250 258 259 260 263 268 272 271 274 276 271 271 271 276 279 282 282 287 296 299 303 306 306 309 310 312 317 317 319 319 318 318 315
nan 204 222 nan 200 207 207 203 204 nan nan 224 nan 217 205 204 201 200 202 192 192 194 203 177 177 183 182 177 177 171 194 187 178 167 188 nan nan nan nan nan nan nan nan nan nan 202 176 213 220 237 226 231 235 246 254 265 272 268 265 267 269 270 271 272 273 274 276 274 280 287 287 289 290 294 298 302 306 308 312 314 316 316 318 319 319 317 315 313
204 203 199 203 208 213 203 201 204 202 nan 217 nan 213 202 205 200 202 185 182 174 181 192 179 183 175 178 181 181 167 174 174 166 159 157 nan 169 nan nan 210 nan 227 nan nan nan nan nan 216 228 228 220 235 242 259 266 270 273 268 264 263 268 276 279 275 273 266 272 283 286 294 300 298 301 301 305 308 308 311 313 314 315 317 320 320 319 315 312 314
202 205 199 198 nan 218 194 210 nan nan nan nan nan 207 204 203 195 195 189 200 193 184 178 175 175 176 172 178 188 187 174 nan nan nan nan nan nan nan nan nan nan nan nan nan nan nan 214 234 248 256 216 237 257 262 275 281 275 278 269 260 263 270 270 273 272 271 270 280 297 295 289 295 305 309 310 310 310 312 312 314 316 316 319 319 316 313 314 312